• En España
  • Lista de países
  • Para 7 días
  • Temperatura del agua
  • Mapa Satelital
  • El tiempo en el mapa
  • Informadores
  • user-avatar
    Iniciar sesión

    Tiempo cada hora Saurimo

    Hoy, 22 Octubre, Lunes

    Tiempo Temperatura Precipitaciones Viento Presión Humedad
    00:00 +22°C° 1.2 mm 1 mps 669 mmHg 85%
    01:00 +21°C° 1.2 mm 1 mps 669 mmHg 89%
    02:00 +21°C° 0.5 mm 1 mps 669 mmHg 89%
    03:00 +21°C° 0.5 mm 1 mps 669 mmHg 90%
    04:00 +21°C° 0.5 mm 1 mps 669 mmHg 91%
    05:00 +21°C° 0 mm 2 mps 669 mmHg 87%
    06:00 +23°C° 0 mm 2 mps 670 mmHg 83%
    07:00 +23°C° 0 mm 2 mps 671 mmHg 79%
    08:00 +25°C° 0.5 mm 3 mps 671 mmHg 72%
    09:00 +26°C° 0.5 mm 4 mps 671 mmHg 66%
    10:00 +28°C° 0.5 mm 4 mps 671 mmHg 60%
    11:00 +29°C° 0 mm 4 mps 671 mmHg 55%
    12:00 +30°C° 0 mm 4 mps 671 mmHg 49%
    13:00 +31°C° 0 mm 3 mps 670 mmHg 44%
    14:00 +30°C° 0 mm 3 mps 670 mmHg 45%
    15:00 +30°C° 0 mm 3 mps 670 mmHg 47%
    16:00 +29°C° 0 mm 2 mps 669 mmHg 48%
    17:00 +28°C° 0.2 mm 2 mps 669 mmHg 56%
    18:00 +26°C° 0.2 mm 2 mps 670 mmHg 63%
    19:00 +24°C° 0.2 mm 2 mps 670 mmHg 71%
    20:00 +24°C° 0.1 mm 2 mps 670 mmHg 73%
    21:00 +23°C° 0.1 mm 2 mps 671 mmHg 75%
    22:00 +21°C° 0.1 mm 2 mps 671 mmHg 77%
    23:00 +21°C° 0 mm 2 mps 671 mmHg 79%

    Mañana, 23 Octubre, Martes

    Tiempo Temperatura Precipitaciones Viento Presión Humedad
    00:00 +21°C° 0 mm 1 mps 670 mmHg 81%
    01:00 +21°C° 0 mm 1 mps 670 mmHg 83%
    02:00 +21°C° 0 mm 1 mps 670 mmHg 84%
    03:00 +21°C° 0 mm 1 mps 670 mmHg 85%
    04:00 +20°C° 0 mm 1 mps 670 mmHg 86%
    05:00 +21°C° 0.1 mm 1 mps 670 mmHg 84%
    06:00 +22°C° 0.1 mm 1 mps 671 mmHg 81%
    07:00 +23°C° 0.1 mm 1 mps 672 mmHg 79%
    08:00 +25°C° 0.4 mm 1 mps 672 mmHg 71%
    09:00 +27°C° 0.4 mm 2 mps 672 mmHg 63%
    10:00 +29°C° 0.4 mm 3 mps 672 mmHg 55%
    11:00 +29°C° 0.5 mm 3 mps 672 mmHg 53%
    12:00 +30°C° 0.5 mm 2 mps 672 mmHg 51%
    13:00 +30°C° 0.5 mm 2 mps 671 mmHg 49%
    14:00 +28°C° 1.2 mm 2 mps 671 mmHg 58%
    15:00 +26°C° 1.2 mm 2 mps 670 mmHg 68%
    16:00 +24°C° 1.2 mm 2 mps 669 mmHg 77%
    17:00 +24°C° 1.4 mm 2 mps 670 mmHg 81%
    18:00 +23°C° 1.4 mm 2 mps 670 mmHg 84%
    19:00 +21°C° 1.4 mm 2 mps 671 mmHg 87%
    20:00 +20°C° 0.6 mm 2 mps 671 mmHg 89%
    21:00 +20°C° 0.6 mm 2 mps 671 mmHg 91%
    22:00 +20°C° 0.6 mm 2 mps 672 mmHg 93%
    23:00 +19°C° 0 mm 2 mps 671 mmHg 93%

    Pasado mañana, 24 Octubre, Miércoles

    Tiempo Temperatura Precipitaciones Viento Presión Humedad
    00:00 +19°C° 0 mm 2 mps 671 mmHg 93%
    01:00 +19°C° 0 mm 2 mps 670 mmHg 93%
    02:00 +18°C° 0 mm 2 mps 670 mmHg 93%
    03:00 +18°C° 0 mm 2 mps 670 mmHg 92%
    04:00 +18°C° 0 mm 2 mps 670 mmHg 92%
    05:00 +19°C° 0 mm 3 mps 670 mmHg 88%
    06:00 +20°C° 0 mm 3 mps 671 mmHg 84%
    07:00 +21°C° 0 mm 4 mps 672 mmHg 80%
    08:00 +23°C° 0.3 mm 4 mps 672 mmHg 72%
    09:00 +26°C° 0.3 mm 4 mps 672 mmHg 65%
    10:00 +28°C° 0.3 mm 4 mps 673 mmHg 57%
    11:00 +29°C° 0.6 mm 3 mps 672 mmHg 55%
    12:00 +29°C° 0.6 mm 3 mps 671 mmHg 53%
    13:00 +30°C° 0.6 mm 3 mps 671 mmHg 51%
    14:00 +29°C° 0.5 mm 2 mps 670 mmHg 56%
    15:00 +28°C° 0.5 mm 2 mps 670 mmHg 60%
    16:00 +27°C° 0.5 mm 2 mps 669 mmHg 64%
    17:00 +26°C° 0.1 mm 2 mps 669 mmHg 70%
    18:00 +24°C° 0.1 mm 2 mps 670 mmHg 76%
    19:00 +21°C° 0.1 mm 2 mps 670 mmHg 83%
    20:00 +21°C° 0.1 mm 2 mps 670 mmHg 84%
    21:00 +21°C° 0.1 mm 2 mps 670 mmHg 86%
    22:00 +20°C° 0.1 mm 2 mps 670 mmHg 88%
    23:00 +20°C° 0.4 mm 2 mps 670 mmHg 89%

    25 Octubre, Jueves

    Tiempo Temperatura Precipitaciones Viento Presión Humedad
    00:00 +19°C° 0.4 mm 2 mps 670 mmHg 90%
    01:00 +19°C° 0.4 mm 2 mps 669 mmHg 91%
    02:00 +19°C° 0.1 mm 2 mps 669 mmHg 91%
    03:00 +18°C° 0.1 mm 2 mps 669 mmHg 91%
    04:00 +18°C° 0.1 mm 2 mps 669 mmHg 91%
    05:00 +19°C° 0 mm 3 mps 670 mmHg 85%
    06:00 +20°C° 0 mm 3 mps 670 mmHg 80%
    07:00 +21°C° 0 mm 3 mps 671 mmHg 75%
    08:00 +25°C° 0 mm 3 mps 671 mmHg 61%
    09:00 +28°C° 0 mm 3 mps 672 mmHg 48%
    10:00 +31°C° 0 mm 3 mps 672 mmHg 35%
    11:00 +33°C° 0 mm 3 mps 671 mmHg 33%
    12:00 +34°C° 0 mm 2 mps 670 mmHg 31%
    13:00 +35°C° 0 mm 2 mps 670 mmHg 29%
    14:00 +33°C° 0 mm 1 mps 669 mmHg 33%
    15:00 +32°C° 0 mm 1 mps 669 mmHg 36%
    16:00 +29°C° 0 mm 0 mps 669 mmHg 39%
    17:00 +27°C° 0 mm 0 mps 669 mmHg 41%
    18:00 +26°C° 0 mm 0 mps 669 mmHg 43%
    19:00 +25°C° 0 mm 0 mps 670 mmHg 45%
    20:00 +24°C° 0 mm 0 mps 670 mmHg 48%
    21:00 +25°C° 0 mm 1 mps 670 mmHg 50%
    22:00 +25°C° 0 mm 1 mps 670 mmHg 53%
    23:00 +24°C° 0 mm 1 mps 670 mmHg 56%

    26 Octubre, Viernes

    Tiempo Temperatura Precipitaciones Viento Presión Humedad
    00:00 +24°C° 0 mm 1 mps 669 mmHg 59%
    01:00 +23°C° 0 mm 1 mps 669 mmHg 62%
    02:00 +22°C° 0.1 mm 1 mps 669 mmHg 67%
    03:00 +21°C° 0.1 mm 1 mps 669 mmHg 71%
    04:00 +21°C° 0.1 mm 1 mps 669 mmHg 76%
    05:00 +22°C° 0 mm 1 mps 670 mmHg 73%
    06:00 +23°C° 0 mm 1 mps 670 mmHg 69%
    07:00 +24°C° 0 mm 1 mps 671 mmHg 66%
    08:00 +28°C° 0 mm 1 mps 672 mmHg 55%
    09:00 +32°C° 0 mm 1 mps 672 mmHg 44%
    10:00 +35°C° 0 mm 1 mps 673 mmHg 34%
    11:00 +34°C° 0 mm 1 mps 672 mmHg 35%
    12:00 +33°C° 0 mm 1 mps 671 mmHg 35%
    13:00 +34°C° 0 mm 2 mps 670 mmHg 36%
    14:00 +32°C° 0 mm 2 mps 669 mmHg 38%
    15:00 +31°C° 0 mm 2 mps 669 mmHg 40%
    16:00 +31°C° 0 mm 2 mps 669 mmHg 42%
    17:00 +29°C° 0.1 mm 1 mps 669 mmHg 48%
    18:00 +27°C° 0.1 mm 1 mps 670 mmHg 54%
    19:00 +25°C° 0.1 mm 1 mps 670 mmHg 59%
    20:00 +24°C° 0 mm 1 mps 670 mmHg 62%
    21:00 +22°C° 0 mm 0 mps 670 mmHg 64%
    22:00 +21°C° 0 mm 0 mps 670 mmHg 66%
    23:00 +21°C° 0.1 mm 0 mps 670 mmHg 70%

    27 Octubre, Sábado

    Tiempo Temperatura Precipitaciones Viento Presión Humedad
    00:00 +22°C° 0.1 mm 1 mps 669 mmHg 73%
    01:00 +22°C° 0.1 mm 1 mps 669 mmHg 76%
    02:00 +21°C° 0 mm 1 mps 669 mmHg 78%
    03:00 +19°C° 0 mm 0 mps 669 mmHg 80%
    04:00 +19°C° 0 mm 0 mps 669 mmHg 81%
    05:00 +22°C° 0 mm 1 mps 670 mmHg 76%
    06:00 +24°C° 0 mm 1 mps 671 mmHg 70%
    07:00 +25°C° 0 mm 1 mps 672 mmHg 64%
    08:00 +30°C° 0 mm 1 mps 672 mmHg 53%
    09:00 +32°C° 0 mm 0 mps 673 mmHg 43%
    10:00 +36°C° 0 mm 0 mps 674 mmHg 32%
    11:00 +36°C° 0 mm 1 mps 672 mmHg 34%
    12:00 +35°C° 0 mm 1 mps 671 mmHg 35%
    13:00 +33°C° 0 mm 1 mps 669 mmHg 37%
    14:00 +32°C° 0.1 mm 1 mps 669 mmHg 40%
    15:00 +32°C° 0.1 mm 2 mps 669 mmHg 43%
    16:00 +31°C° 0.1 mm 2 mps 669 mmHg 46%
    17:00 +29°C° 0 mm 1 mps 669 mmHg 52%
    18:00 +27°C° 0 mm 1 mps 669 mmHg 58%
    19:00 +26°C° 0 mm 1 mps 669 mmHg 64%
    20:00 +25°C° 0.5 mm 1 mps 669 mmHg 68%
    21:00 +24°C° 0.5 mm 1 mps 669 mmHg 73%
    22:00 +23°C° 0.5 mm 1 mps 669 mmHg 77%
    23:00 +23°C° 0.1 mm 1 mps 669 mmHg 79%

    28 Octubre, Domingo

    Tiempo Temperatura Precipitaciones Viento Presión Humedad
    00:00 +22°C° 0.1 mm 1 mps 669 mmHg 81%
    01:00 +20°C° 0.1 mm 0 mps 668 mmHg 83%
    02:00 +20°C° 0.1 mm 0 mps 668 mmHg 84%
    03:00 +20°C° 0.1 mm 0 mps 668 mmHg 85%
    04:00 +20°C° 0.1 mm 0 mps 668 mmHg 85%
    05:00 +21°C° 0 mm 0 mps 669 mmHg 81%
    06:00 +22°C° 0 mm 0 mps 670 mmHg 76%
    07:00 +24°C° 0 mm 0 mps 671 mmHg 71%
    08:00 +29°C° 0 mm 1 mps 671 mmHg 59%
    09:00 +32°C° 0 mm 1 mps 672 mmHg 47%
    10:00 +36°C° 0 mm 1 mps 673 mmHg 35%
    11:00 +35°C° 0 mm 1 mps 671 mmHg 37%
    12:00 +34°C° 0 mm 1 mps 670 mmHg 39%
    13:00 +33°C° 0 mm 1 mps 669 mmHg 41%
    14:00 +32°C° 0 mm 1 mps 669 mmHg 42%
    15:00 +32°C° 0 mm 2 mps 669 mmHg 42%
    16:00 +32°C° 0 mm 2 mps 669 mmHg 43%
    17:00 +30°C° 0 mm 1 mps 669 mmHg 48%
    18:00 +28°C° 0 mm 1 mps 669 mmHg 54%
    19:00 +26°C° 0 mm 1 mps 669 mmHg 60%
    20:00 +25°C° 0 mm 1 mps 668 mmHg 62%
    21:00 +23°C° 0 mm 0 mps 668 mmHg 64%
    22:00 +22°C° 0 mm 0 mps 668 mmHg 67%
    23:00 +23°C° 0.3 mm 1 mps 668 mmHg 72%
    Mostrar más